📊 Raw Sensor Data

Showing records 41501 to 41525 of 84,983 total

ID Distance (ft) Battery V Battery A Int Temp (°F) Int Humid (%) Ext Temp (°F) Solar V RSSI SNR Time Stamp
43495 15.7 4.14 0 101 45 87 5.10 -69 7 06/14/2025 04:45 PM
43494 15.7 4.12 0 100 45 92 5.10 -68 8 06/14/2025 04:30 PM
43493 15.7 4.00 0 99 45 87 5.10 -69 7 06/14/2025 04:15 PM
43492 15.7 4.13 0 99 44 86 5.10 -69 8 06/14/2025 04:00 PM
43491 15.7 4.00 0 99 44 92 5.10 -68 8 06/14/2025 03:45 PM
43490 15.7 4.00 0 98 43 92 5.10 -67 7 06/14/2025 03:30 PM
43489 15.7 4.00 0 97 43 87 5.10 -67 7 06/14/2025 03:15 PM
43488 15.7 4.00 0 95 43 90 5.10 -68 8 06/14/2025 03:00 PM
43487 15.7 4.03 0 93 44 87 5.10 -68 7 06/14/2025 02:45 PM
43486 15.7 4.02 0 92 45 85 5.10 -68 8 06/14/2025 02:30 PM
43485 15.7 4.07 0 95 42 87 5.10 -67 8 06/14/2025 02:15 PM
43484 15.7 4.00 0 93 43 88 5.10 -68 7 06/14/2025 02:00 PM
43483 15.7 4.03 0 91 43 83 5.10 -67 8 06/14/2025 01:45 PM
43482 15.7 4.00 0 93 42 82 5.10 -69 7 06/14/2025 01:30 PM
43481 15.7 4.00 0 91 42 84 5.20 -67 7 06/14/2025 01:15 PM
43480 15.7 4.00 0 90 42 81 5.10 -68 8 06/14/2025 01:00 PM
43479 15.7 4.03 0 89 41 84 5.10 -68 7 06/14/2025 12:45 PM
43478 15.7 4.00 0 87 41 84 5.10 -67 8 06/14/2025 12:30 PM
43477 15.7 4.00 0 84 42 83 5.10 -68 8 06/14/2025 12:15 PM
43476 15.8 4.00 0 83 42 83 5.10 -67 8 06/14/2025 12:00 PM
43475 15.7 4.00 0 81 42 80 5.10 -67 8 06/14/2025 11:45 AM
43474 15.8 4.00 0 80 42 81 5.10 -67 7 06/14/2025 11:30 AM
43473 15.7 4.00 0 78 42 81 5.10 -68 7 06/14/2025 11:15 AM
43472 15.8 4.00 0 76 42 80 5.10 -68 7 06/14/2025 11:00 AM
43471 15.8 4.00 0 75 42 77 5.10 -67 8 06/14/2025 10:45 AM